| time (UTC) | temp F | wind direction | speed knots | gust knots | rain 1hr in | rain 24hr in | rain mn in | humidity % | barometer mb |
| 20260506000036 | 70 | 273 | 7.8 | 21.7 | 0.00 | 0.00 | 0.00 | 56 | 1013.3 |
| 20260505234530 | 70 | 275 | 7.0 | 16.5 | 0.00 | 0.00 | 0.00 | 56 | 1013.5 |
| 20260505233037 | 70 | 277 | 7.8 | 20.9 | 0.00 | 0.00 | 0.00 | 55 | 1013.6 |
| 20260505231610 | 70 | 282 | 6.1 | 20.0 | 0.00 | 0.00 | 0.00 | 56 | 1013.6 |
| 20260505230037 | 69 | 281 | 7.8 | 21.7 | 0.00 | 0.00 | 0.00 | 57 | 1013.8 |
| 20260505224532 | 69 | 283 | 8.7 | 20.9 | 0.00 | 0.00 | 0.00 | 57 | 1013.9 |
| 20260505223149 | 69 | 282 | 7.8 | 20.0 | 0.00 | 0.00 | 0.00 | 57 | 1014.0 |
| 20260505221536 | 69 | 275 | 9.6 | 20.9 | 0.00 | 0.00 | 0.00 | 57 | 1014.0 |
| 20260505220035 | 69 | 280 | 7.8 | 18.2 | 0.00 | 0.00 | 0.00 | 57 | 1014.3 |
| 20260505214535 | 69 | 275 | 7.0 | 23.5 | 0.00 | 0.00 | 0.00 | 58 | 1014.4 |
| 20260505213034 | 68 | 283 | 8.7 | 19.1 | 0.00 | 0.00 | 0.00 | 58 | 1014.5 |
| 20260505211608 | 68 | 278 | 8.7 | 18.2 | 0.00 | 0.00 | 0.00 | 58 | 1014.5 |
| 20260505210031 | 68 | 273 | 9.6 | 20.0 | 0.00 | 0.00 | 0.00 | 57 | 1014.6 |
| 20260505200037 | 68 | 279 | 7.0 | 20.9 | 0.00 | 0.00 | 0.00 | 57 | 1015.1 |
| 20260505194609 | 68 | 276 | 8.7 | 20.0 | 0.00 | 0.00 | 0.00 | 58 | 1015.2 |
| 20260505193135 | 67 | 280 | 8.7 | 25.2 | 0.00 | 0.00 | 0.00 | 58 | 1015.4 |
| 20260505191537 | 67 | 287 | 9.6 | 21.7 | 0.00 | 0.00 | 0.00 | 58 | 1015.3 |
| 20260505183107 | 65 | 288 | 8.7 | 20.9 | 0.00 | 0.00 | 0.00 | 61 | 1015.6 |
| 20260505181531 | 65 | 285 | 9.6 | 20.9 | 0.00 | 0.00 | 0.00 | 62 | 1015.7 |
| 20260505180032 | 65 | 285 | 7.0 | 18.2 | 0.00 | 0.00 | 0.00 | 63 | 1015.7 |
| 20260505174536 | 64 | 278 | 7.8 | 20.9 | 0.00 | 0.00 | 0.00 | 64 | 1015.7 |
| 20260505173035 | 63 | 286 | 7.8 | 20.0 | 0.00 | 0.00 | 0.00 | 65 | 1015.7 |
| 20260505171535 | 63 | 287 | 8.7 | 20.0 | 0.00 | 0.00 | 0.00 | 67 | 1015.6 |
| 20260505170034 | 62 | 286 | 8.7 | 19.1 | 0.00 | 0.00 | 0.00 | 68 | 1015.6 |
| 20260505164535 | 62 | 284 | 8.7 | 20.9 | 0.00 | 0.00 | 0.00 | 69 | 1015.6 |
| 20260505161609 | 61 | 282 | 7.8 | 20.9 | 0.00 | 0.00 | 0.00 | 70 | 1015.5 |
| 20260505153034 | 60 | 258 | 7.0 | 17.4 | 0.00 | 0.00 | 0.00 | 74 | 1015.5 |
| 20260505151533 | 58 | 249 | 7.8 | 17.4 | 0.00 | 0.00 | 0.00 | 76 | 1015.5 |
| 20260505124608 | 55 | 255 | 7.0 | 16.5 | 0.00 | 0.00 | 0.00 | 81 | 1014.6 |
| 20260505123106 | 56 | 253 | 7.0 | 15.6 | 0.00 | 0.00 | 0.00 | 81 | 1014.5 |
| 20260505114532 | 56 | 261 | 5.2 | 15.6 | 0.00 | 0.00 | 0.00 | 80 | 1014.2 |
| 20260505113033 | 56 | 248 | 5.2 | 13.9 | 0.00 | 0.00 | 0.00 | 79 | 1014.2 |
| 20260505101530 | 58 | 247 | 5.2 | 12.2 | 0.00 | 0.00 | 0.00 | 77 | 1013.7 |
| 20260505100036 | 58 | 241 | 5.2 | 12.2 | 0.00 | 0.00 | 0.00 | 77 | 1013.6 |
| 20260505094531 | 58 | 248 | 4.3 | 11.3 | 0.00 | 0.00 | 0.00 | 76 | 1013.5 |
| 20260505091535 | 60 | 245 | 5.2 | 15.6 | 0.00 | 0.00 | 0.00 | 74 | 1013.2 |
| 20260505090036 | 60 | 244 | 5.2 | 14.8 | 0.00 | 0.00 | 0.00 | 73 | 1012.9 |
| 20260505084642 | 61 | 236 | 6.1 | 16.5 | 0.00 | 0.00 | 0.00 | 73 | 1012.8 |
| 20260505081609 | 62 | 252 | 5.2 | 16.5 | 0.00 | 0.00 | 0.00 | 73 | 1012.7 |
| 20260505074535 | 63 | 245 | 6.1 | 15.6 | 0.00 | 0.00 | 0.00 | 73 | 1012.5 |
| 20260505073109 | 63 | 245 | 5.2 | 13.9 | 0.00 | 0.00 | 0.00 | 73 | 1012.4 |
| 20260505071532 | 64 | 245 | 5.2 | 13.9 | 0.00 | 0.00 | 0.00 | 72 | 1012.3 |
| 20260505070035 | 64 | 245 | 3.5 | 9.6 | 0.00 | 0.00 | 0.00 | 70 | 1012.2 |
| 20260505063034 | 65 | 257 | 4.3 | 11.3 | 0.00 | 0.00 | 0.00 | 68 | 1011.9 |
| 20260505054532 | 66 | 259 | 2.6 | 12.2 | 0.00 | 0.00 | 0.00 | 66 | 1011.8 |
| 20260505053031 | 66 | 252 | 5.2 | 13.0 | 0.00 | 0.00 | 0.00 | 65 | 1011.7 |
| 20260505041648 | 68 | 260 | 5.2 | 13.0 | 0.00 | 0.00 | 0.00 | 59 | 1010.8 |
| 20260505034608 | 68 | 270 | 4.3 | 9.6 | 0.00 | 0.00 | 0.00 | 57 | 1010.4 |
| 20260505033033 | 69 | 257 | 4.3 | 10.4 | 0.00 | 0.00 | 0.00 | 56 | 1010.3 |
| 20260505030108 | 70 | 260 | 4.3 | 11.3 | 0.00 | 0.00 | 0.00 | 55 | 1009.7 |
| 20260505024534 | 71 | 252 | 4.3 | 12.2 | 0.00 | 0.00 | 0.00 | 55 | 1009.6 |
| 20260505023110 | 71 | 237 | 4.3 | 12.2 | 0.00 | 0.00 | 0.00 | 55 | 1009.6 |
| 20260505021608 | 71 | 239 | 4.3 | 10.4 | 0.00 | 0.00 | 0.00 | 54 | 1009.5 |
| 20260505020110 | 72 | 235 | 3.5 | 7.8 | 0.00 | 0.00 | 0.00 | 53 | 1009.4 |
| 20260505013110 | 74 | 248 | 5.2 | 14.8 | 0.00 | 0.00 | 0.00 | 49 | 1009.2 |
| 20260505011609 | 75 | 255 | 6.1 | 19.1 | 0.00 | 0.00 | 0.00 | 49 | 1009.1 |
| 20260505010036 | 75 | 258 | 6.1 | 17.4 | 0.00 | 0.00 | 0.00 | 48 | 1009.1 |
| 20260505004530 | 76 | 257 | 8.7 | 19.1 | 0.00 | 0.00 | 0.00 | 47 | 1009.2 |
| 20260505003111 | 76 | 261 | 7.0 | 19.1 | 0.00 | 0.00 | 0.00 | 47 | 1009.1 |